Regional Weather Roundup
Issued by NWS

Home | Current Version | Previous Version | Graphics & Text | Print | Product List | Glossary On
Versions: 1 2 3 4 5 6 7 8 9 10 11 12 13 14 15 16 17 18 19 20 21 22 23 24 25 26 27 28 29 30 31 32 33 34 35 36 37 38 39 40 41 42 43 44 45 46 47 48 49 50
000
ASUS45 KCYS 181810
RWRWY

WYOMING REGIONAL WEATHER ROUNDUP
NATIONAL WEATHER SERVICE CHEYENNE WY
1100 AM MST SAT NOV 18 2017

NOTE:  "FAIR" INDICATES FEW OR NO CLOUDS BELOW 12,000 FEET
WITH NO SIGNIFICANT WEATHER AND/OR OBSTRUCTIONS TO VISIBILITY.

WYZ001-181900-
YELLOWSTONE NATIONAL PARK

CITY           SKY/WX    TMP DP  RH WIND       PRES   REMARKS
LK YELLOWSTONE NOT AVBL
W YELLOWSTONE  NOT AVBL

$$
WYZ002>013-054>058-071-098>099-181900-
NORTHERN WYOMING

CITY           SKY/WX    TMP DP  RH WIND       PRES   REMARKS
JACKSON        FAIR      23  13  65 N13       30.38R WCI  11
CODY           FAIR      37  11  34 W16G26    30.20R WCI  28
GREYBULL       FAIR      36  19  50 S8        30.23S WCI  30
6HR MIN TEMP:  19; 6HR MAX TEMP:  36;

WORLAND        FAIR      33  24  69 CALM      30.24R
6HR MIN TEMP:  17; 6HR MAX TEMP:  33;

SHERIDAN       FAIR      40  16  37 E6        30.17R
6HR MIN TEMP:  25; 6HR MAX TEMP:  41;

BUFFALO        FAIR      32  13  45 S13       30.16S WCI  22
6HR MIN TEMP:  19; 6HR MAX TEMP:  32;

GILLETTE       FAIR      39  14  36 NW13      30.17S WCI  31
6HR MIN TEMP:  23; 6HR MAX TEMP:  39;

HULETT         CLOUDY    36  19  51 W10       30.16F WCI  28
NEWCASTLE      FAIR      36  14  41 NW17      30.19S WCI  25

$$
WYZ014>020-022>026-101>103-181900-
CENTRAL WYOMING

CITY           SKY/WX    TMP DP  RH WIND       PRES   REMARKS
BIG PINEY      FAIR      19  12  74 CALM      30.34R
6HR MIN TEMP:   0; 6HR MAX TEMP:  19;

PINEDALE       FAIR      27  12  54 NW12      30.34R WCI  16
DUBOIS         FAIR      27   9  46 NW24G36   30.20R WCI  12
LANDER         FAIR      36   5  27 SE5       30.20F WCI  32
6HR MIN TEMP:  16; 6HR MAX TEMP:  36;

RIVERTON       FAIR      35  16  45 NE5       30.22R WCI  31
6HR MIN TEMP:  21; 6HR MAX TEMP:  35;

CASPER         FAIR      28  19  69 SW18      30.24R WCI  15
6HR MIN TEMP:  16; 6HR MAX TEMP:  28;

DOUGLAS        FAIR      31  22  69 NW8       30.22F WCI  23
6HR MIN TEMP:  16; 6HR MAX TEMP:  31;


$$
WYZ021-027>030-104>119-181900-
SOUTHERN WYOMING

CITY           SKY/WX    TMP DP  RH WIND       PRES   REMARKS
EVANSTON       FAIR      19  16  88 W10       30.38S WCI   7
6HR MIN TEMP:   8; 6HR MAX TEMP:  19;

FORT BRIDGER   CLEAR     23  16  74 W9        30.41  WCI  13
ROCK SPRINGS   FAIR      23  15  71 SW23      30.36R WCI   7
6HR MIN TEMP:  16; 6HR MAX TEMP:  23;

DIXON          FAIR      21  16  81 CALM      30.44S
RAWLINS        LGT SNOW  24  16  71 W32G44    30.27S WCI   6
6HR MIN TEMP:  15; 6HR MAX TEMP:  24; 6HR PCP: TRACE;

SARATOGA       FAIR      23  14  68 SE5       30.35R WCI  17
LARAMIE        FAIR      26  12  55 SW24G32   30.20S WCI  11
6HR MIN TEMP:   8; 6HR MAX TEMP:  26;

CHEYENNE       FAIR      33  14  45 NW16G25   30.22R WCI  23
6HR MIN TEMP:  21; 6HR MAX TEMP:  33;

TORRINGTON     FAIR      39  17  41 W16G25    30.24R WCI  30
6HR MIN TEMP:  25; 6HR MAX TEMP:  39;

PINE BLUFFS    FAIR      34  18  51 MISG      30.25S

$$



USA.gov is the U.S. government's official web portal to all federal, state and local government web resources and services.